User: anonymous   Login
Location: Newark
(41.9000°N, 12.4833°E)
Time: 10:53:25
(UTC+00:00)
Language:

KKS-1 - Orbit

View from above orbital plane
View from above orbital plane
View from above satellite
View from above satellite

Ground track
Ground track

The orbit data is extracted from the following two-line orbital elements,

1 33499U 09002H   21026.88846467  .00000145  00000-0  29174-4 0  9998
2 33499  98.2886 253.5232 0010039 127.7884 232.4235 14.75610664645537
Epoch (UTC): 26 January 2021 21:19:23
Eccentricity: 0.0010039
inclination: 98.2886°
perigee height: 636 km
apogee height: 650 km
right ascension of ascending node: 253.5232°
argument of perigee: 127.7884°
revolutions per day: 14.75610664
mean anomaly at epoch: 232.4235°
orbit number at epoch: 64553

The dashed part of the orbit path shows where the satellite is in the earth's shadow,  

DLR